Time,TemperatureF,DewpointF,PressureIn,WindDirection,WindDirectionDegrees,WindSpeedMPH,WindSpeedGustMPH,Humidity,HourlyPrecipIn,Conditions,Clouds,dailyrainin,SolarRadiationWatts/m^2,SoftwareType,DateUTC
2013-06-23 00:01:00,69.3,56.5,30.19,SSW,213,0.0,3.0,64,0.00,,,0.00,0.0,meteohub,2013-06-23 04:01:00,
2013-06-23 00:02:00,69.3,56.5,30.19,SSW,213,0.0,3.0,64,0.00,,,0.00,0.0,meteohub,2013-06-23 04:02:00,
2013-06-23 00:03:00,69.1,56.5,30.19,SSW,213,0.0,3.0,64,0.00,,,0.00,0.0,meteohub,2013-06-23 04:03:00,
2013-06-23 00:04:00,69.1,56.5,30.18,SSW,213,1.0,3.0,64,0.00,,,0.00,0.0,meteohub,2013-06-23 04:04:00,
2013-06-23 00:09:00,69.1,56.5,30.19,SSW,213,1.0,3.0,64,0.00,,,0.00,0.0,meteohub,2013-06-23 04:09:00,
2013-06-23 00:15:00,68.7,56.5,30.19,SSW,192,0.0,4.0,65,0.00,,,0.00,0.0,meteohub,2013-06-23 04:15:00,
2013-06-23 00:20:00,68.5,56.3,30.19,SSW,192,0.0,6.0,65,0.00,,,0.00,0.0,meteohub,2013-06-23 04:20:00,
2013-06-23 00:25:00,68.4,56.5,30.19,SW,229,1.0,6.0,66,0.00,,,0.00,0.0,meteohub,2013-06-23 04:25:00,
2013-06-23 00:30:00,68.4,56.5,30.19,SW,229,0.0,6.0,66,0.00,,,0.00,0.0,meteohub,2013-06-23 04:30:00,
2013-06-23 00:35:00,68.5,56.7,30.19,SW,229,0.0,4.0,66,0.00,,,0.00,0.0,meteohub,2013-06-23 04:35:00,
2013-06-23 00:40:00,68.4,56.5,30.19,SW,229,0.0,1.0,66,0.00,,,0.00,0.0,meteohub,2013-06-23 04:40:00,
2013-06-23 00:45:00,68.4,56.5,30.19,SW,229,0.0,2.0,66,0.00,,,0.00,0.0,meteohub,2013-06-23 04:45:00,
2013-06-23 00:50:00,68.4,56.5,30.19,SW,229,0.0,2.0,66,0.00,,,0.00,0.0,meteohub,2013-06-23 04:50:00,
2013-06-23 00:55:00,68.4,57.0,30.19,SW,229,0.0,1.0,67,0.00,,,0.00,0.0,meteohub,2013-06-23 04:55:00,
2013-06-23 01:00:00,68.2,56.8,30.19,SW,229,0.0,1.0,67,0.00,,,0.00,0.0,meteohub,2013-06-23 05:00:00,
2013-06-23 01:05:00,68.2,56.8,30.19,SW,229,0.0,1.0,67,0.00,,,0.00,0.0,meteohub,2013-06-23 05:05:00,
2013-06-23 01:11:00,67.8,56.8,30.19,SW,229,0.0,1.0,68,0.00,,,0.00,0.0,meteohub,2013-06-23 05:11:00,
2013-06-23 01:16:00,67.6,57.0,30.19,SW,229,0.0,3.0,69,0.00,,,0.00,0.0,meteohub,2013-06-23 05:16:00,
2013-06-23 01:21:00,67.3,57.2,30.19,SW,229,0.0,3.0,70,0.00,,,0.00,0.0,meteohub,2013-06-23 05:21:00,
2013-06-23 01:26:00,66.9,56.8,30.19,SW,229,0.0,3.0,70,0.00,,,0.00,0.0,meteohub,2013-06-23 05:26:00,
2013-06-23 01:31:00,66.7,57.0,30.19,SW,229,0.0,2.0,71,0.00,,,0.00,0.0,meteohub,2013-06-23 05:31:00,
2013-06-23 01:36:00,66.6,56.8,30.19,SW,229,0.0,2.0,71,0.00,,,0.00,0.0,meteohub,2013-06-23 05:36:00,
2013-06-23 01:41:00,66.6,57.2,30.19,SW,229,0.0,1.0,72,0.00,,,0.00,0.0,meteohub,2013-06-23 05:41:00,
2013-06-23 01:46:00,66.7,57.4,30.19,SW,229,0.0,1.0,72,0.00,,,0.00,0.0,meteohub,2013-06-23 05:46:00,
2013-06-23 01:51:00,66.7,57.4,30.19,SW,229,0.0,1.0,72,0.00,,,0.00,0.0,meteohub,2013-06-23 05:51:00,
2013-06-23 01:56:00,66.6,57.2,30.19,SW,229,1.0,2.0,72,0.00,,,0.00,0.0,meteohub,2013-06-23 05:56:00,
2013-06-23 02:01:00,66.2,56.8,30.19,SW,229,0.0,2.0,72,0.00,,,0.00,0.0,meteohub,2013-06-23 06:01:00,
2013-06-23 02:02:00,66.2,56.8,30.19,SW,229,0.0,2.0,72,0.00,,,0.00,0.0,meteohub,2013-06-23 06:02:00,
2013-06-23 02:07:00,66.0,57.2,30.19,SW,229,0.0,2.0,73,0.00,,,0.00,0.0,meteohub,2013-06-23 06:07:00,
2013-06-23 02:13:00,66.0,57.2,30.19,SW,229,0.0,1.0,73,0.00,,,0.00,0.0,meteohub,2013-06-23 06:13:00,
2013-06-23 02:18:00,65.8,57.0,30.19,SW,229,0.0,1.0,73,0.00,,,0.00,0.0,meteohub,2013-06-23 06:18:00,
2013-06-23 02:23:00,65.8,57.0,30.19,SW,229,2.0,2.0,73,0.00,,,0.00,0.0,meteohub,2013-06-23 06:23:00,
2013-06-23 02:28:00,65.8,57.4,30.19,SW,225,0.0,3.0,74,0.00,,,0.00,0.0,meteohub,2013-06-23 06:28:00,
2013-06-23 02:33:00,65.7,57.2,30.19,SW,225,0.0,3.0,74,0.00,,,0.00,0.0,meteohub,2013-06-23 06:33:00,
2013-06-23 02:38:00,65.8,57.4,30.19,SW,225,1.0,3.0,74,0.00,,,0.00,0.0,meteohub,2013-06-23 06:38:00,
2013-06-23 02:43:00,66.0,57.6,30.19,SW,225,0.0,3.0,74,0.00,,,0.00,0.0,meteohub,2013-06-23 06:43:00,
2013-06-23 02:48:00,66.0,57.6,30.18,WSW,237,0.0,3.0,74,0.00,,,0.00,0.0,meteohub,2013-06-23 06:48:00,
2013-06-23 02:53:00,66.0,57.9,30.18,WSW,242,0.0,4.0,75,0.00,,,0.00,0.0,meteohub,2013-06-23 06:53:00,
2013-06-23 02:58:00,66.2,58.1,30.18,SSW,207,0.0,4.0,75,0.00,,,0.00,0.0,meteohub,2013-06-23 06:58:00,
2013-06-23 03:03:00,66.0,57.9,30.18,SSW,207,1.0,4.0,75,0.00,,,0.00,0.0,meteohub,2013-06-23 07:03:00,
2013-06-23 03:09:00,66.0,57.9,30.17,SSW,207,0.0,3.0,75,0.00,,,0.00,0.0,meteohub,2013-06-23 07:09:00,
2013-06-23 03:14:00,66.0,58.3,30.17,SW,216,2.0,3.0,76,0.00,,,0.00,0.0,meteohub,2013-06-23 07:14:00,
2013-06-23 03:19:00,66.0,58.3,30.17,SW,216,1.0,3.0,76,0.00,,,0.00,0.0,meteohub,2013-06-23 07:19:00,
2013-06-23 03:24:00,66.2,58.5,30.17,SW,216,0.0,3.0,76,0.00,,,0.00,0.0,meteohub,2013-06-23 07:24:00,
2013-06-23 03:29:00,66.4,58.6,30.17,SW,225,0.0,3.0,76,0.00,,,0.00,0.0,meteohub,2013-06-23 07:29:00,
2013-06-23 03:34:00,66.4,58.6,30.17,SW,225,2.0,3.0,76,0.00,,,0.00,0.0,meteohub,2013-06-23 07:34:00,
2013-06-23 03:39:00,66.4,58.6,30.17,SW,226,1.0,3.0,76,0.00,,,0.00,0.0,meteohub,2013-06-23 07:39:00,
2013-06-23 03:44:00,66.4,59.0,30.17,SSW,194,0.0,4.0,77,0.00,,,0.00,0.0,meteohub,2013-06-23 07:44:00,
2013-06-23 03:49:00,66.4,59.0,30.17,WSW,254,0.0,4.0,77,0.00,,,0.00,0.0,meteohub,2013-06-23 07:49:00,
2013-06-23 03:54:00,66.4,59.0,30.17,SSW,204,2.0,4.0,77,0.00,,,0.00,0.0,meteohub,2013-06-23 07:54:00,
2013-06-23 03:59:00,66.2,58.8,30.17,WSW,246,0.0,4.0,77,0.00,,,0.00,0.0,meteohub,2013-06-23 07:59:00,
2013-06-23 04:04:00,66.0,59.0,30.17,WSW,246,2.0,5.0,78,0.00,,,0.00,0.0,meteohub,2013-06-23 08:04:00,
2013-06-23 04:09:00,66.0,59.0,30.17,WSW,240,0.0,5.0,78,0.00,,,0.00,0.0,meteohub,2013-06-23 08:09:00,
2013-06-23 04:15:00,66.0,59.0,30.17,WSW,240,0.0,5.0,78,0.00,,,0.00,0.0,meteohub,2013-06-23 08:15:00,
2013-06-23 04:20:00,66.0,59.4,30.17,WSW,237,0.0,5.0,79,0.00,,,0.00,0.0,meteohub,2013-06-23 08:20:00,
2013-06-23 04:25:00,66.0,59.4,30.17,SW,234,0.0,5.0,79,0.00,,,0.00,0.0,meteohub,2013-06-23 08:25:00,
2013-06-23 04:30:00,65.8,59.2,30.17,SW,236,2.0,6.0,79,0.00,,,0.00,0.0,meteohub,2013-06-23 08:30:00,
2013-06-23 04:35:00,65.8,59.2,30.17,SW,235,0.0,6.0,79,0.00,,,0.00,0.0,meteohub,2013-06-23 08:35:00,
2013-06-23 04:40:00,65.8,59.5,30.17,SW,236,0.0,6.0,80,0.00,,,0.00,0.0,meteohub,2013-06-23 08:40:00,
2013-06-23 04:45:00,65.7,59.4,30.17,SW,218,2.0,6.0,80,0.00,,,0.00,0.0,meteohub,2013-06-23 08:45:00,
2013-06-23 04:50:00,65.7,59.4,30.17,SW,222,2.0,6.0,80,0.00,,,0.00,0.0,meteohub,2013-06-23 08:50:00,
2013-06-23 04:55:00,65.7,59.4,30.17,SSW,205,1.0,6.0,80,0.00,,,0.00,0.0,meteohub,2013-06-23 08:55:00,
2013-06-23 05:00:00,65.7,59.7,30.17,SSW,205,0.0,6.0,81,0.00,,,0.00,0.0,meteohub,2013-06-23 09:00:00,
2013-06-23 05:06:00,65.7,59.7,30.17,SSW,205,0.0,6.0,81,0.00,,,0.00,0.0,meteohub,2013-06-23 09:06:00,
2013-06-23 05:11:00,65.5,59.5,30.17,SSW,205,0.0,2.0,81,0.00,,,0.00,0.0,meteohub,2013-06-23 09:11:00,
2013-06-23 05:16:00,65.5,59.5,30.17,SSW,205,0.0,3.0,81,0.00,,,0.00,0.0,meteohub,2013-06-23 09:16:00,
2013-06-23 05:21:00,65.5,59.9,30.17,SW,215,3.0,3.0,82,0.00,,,0.00,0.0,meteohub,2013-06-23 09:21:00,
2013-06-23 05:26:00,65.1,59.5,30.18,SW,220,0.0,4.0,82,0.00,,,0.00,0.0,meteohub,2013-06-23 09:26:00,
2013-06-23 05:31:00,65.1,59.9,30.18,SW,219,0.0,6.0,83,0.00,,,0.00,5.0,meteohub,2013-06-23 09:31:00,
2013-06-23 05:36:00,65.1,59.9,30.18,SW,223,1.0,6.0,83,0.00,,,0.00,9.0,meteohub,2013-06-23 09:36:00,
2013-06-23 05:41:00,65.1,59.9,30.18,SW,223,0.0,6.0,83,0.00,,,0.00,12.0,meteohub,2013-06-23 09:41:00,
2013-06-23 05:46:00,65.1,59.9,30.18,SW,221,2.0,4.0,83,0.00,,,0.00,14.0,meteohub,2013-06-23 09:46:00,
2013-06-23 05:51:00,64.9,59.7,30.18,SSW,197,0.0,3.0,83,0.00,,,0.00,18.0,meteohub,2013-06-23 09:51:00,
2013-06-23 05:56:00,64.9,59.7,30.18,SSW,197,0.0,4.0,83,0.00,,,0.00,25.0,meteohub,2013-06-23 09:56:00,
2013-06-23 06:02:00,65.1,59.9,30.18,SSW,197,0.0,4.0,83,0.00,,,0.00,32.0,meteohub,2013-06-23 10:02:00,
2013-06-23 06:07:00,65.1,59.9,30.18,SSW,197,0.0,4.0,83,0.00,,,0.00,40.0,meteohub,2013-06-23 10:07:00,
2013-06-23 06:12:00,65.3,60.1,30.18,SSW,197,0.0,4.0,83,0.00,,,0.00,51.0,meteohub,2013-06-23 10:12:00,
2013-06-23 06:17:00,65.7,60.1,30.19,SSW,197,0.0,4.0,82,0.00,,,0.00,62.0,meteohub,2013-06-23 10:17:00,
2013-06-23 06:22:00,65.8,60.3,30.19,SSW,197,0.0,3.0,82,0.00,,,0.00,74.0,meteohub,2013-06-23 10:22:00,
2013-06-23 06:27:00,66.2,60.6,30.19,SSW,197,0.0,3.0,82,0.00,,,0.00,86.0,meteohub,2013-06-23 10:27:00,
2013-06-23 06:32:00,66.6,60.6,30.19,SSW,197,0.0,3.0,81,0.00,,,0.00,102.0,meteohub,2013-06-23 10:32:00,
2013-06-23 06:37:00,66.9,61.0,30.19,SSW,197,0.0,3.0,81,0.00,,,0.00,114.0,meteohub,2013-06-23 10:37:00,
2013-06-23 06:42:00,67.3,61.2,30.19,SSW,197,0.0,3.0,81,0.00,,,0.00,134.0,meteohub,2013-06-23 10:42:00,
2013-06-23 06:47:00,67.6,61.2,30.19,SSW,197,0.0,2.0,80,0.00,,,0.00,149.0,meteohub,2013-06-23 10:47:00,
2013-06-23 06:52:00,68.2,61.7,30.19,SSW,197,0.0,1.0,80,0.00,,,0.00,167.0,meteohub,2013-06-23 10:52:00,
2013-06-23 06:57:00,68.5,62.1,30.19,SSW,197,0.0,1.0,80,0.00,,,0.00,181.0,meteohub,2013-06-23 10:57:00,
2013-06-23 07:02:00,68.9,62.1,30.19,WSW,238,2.0,3.0,79,0.00,,,0.00,197.0,meteohub,2013-06-23 11:02:00,
2013-06-23 07:07:00,69.3,62.4,30.19,SSW,202,4.0,4.0,79,0.00,,,0.00,211.0,meteohub,2013-06-23 11:07:00,
2013-06-23 07:12:00,69.4,62.6,30.20,SW,216,0.0,4.0,79,0.00,,,0.00,229.0,meteohub,2013-06-23 11:12:00,
2013-06-23 07:17:00,69.8,63.0,30.20,WSW,237,3.0,4.0,79,0.00,,,0.00,241.0,meteohub,2013-06-23 11:17:00,
2013-06-23 07:22:00,70.2,63.3,30.20,SW,235,0.0,4.0,79,0.00,,,0.00,258.0,meteohub,2013-06-23 11:22:00,
2013-06-23 07:27:00,70.3,63.5,30.20,NNE,33,0.0,5.0,79,0.00,,,0.00,269.0,meteohub,2013-06-23 11:27:00,
2013-06-23 07:32:00,70.5,63.7,30.20,SW,217,2.0,6.0,79,0.00,,,0.00,288.0,meteohub,2013-06-23 11:32:00,
2013-06-23 07:37:00,70.9,63.7,30.20,SSW,207,3.0,6.0,78,0.00,,,0.00,301.0,meteohub,2013-06-23 11:37:00,
2013-06-23 07:42:00,71.2,64.4,30.21,SW,229,3.0,7.0,79,0.00,,,0.00,318.0,meteohub,2013-06-23 11:42:00,
2013-06-23 07:47:00,71.4,64.6,30.21,WSW,246,1.0,7.0,79,0.00,,,0.00,332.0,meteohub,2013-06-23 11:47:00,
2013-06-23 07:52:00,72.0,65.1,30.21,West,263,0.0,7.0,79,0.00,,,0.00,348.0,meteohub,2013-06-23 11:52:00,
2013-06-23 07:57:00,72.3,65.5,30.21,SSW,207,2.0,9.0,79,0.00,,,0.00,366.0,meteohub,2013-06-23 11:57:00,
2013-06-23 08:02:00,72.9,66.0,30.21,SW,219,0.0,9.0,79,0.00,,,0.00,378.0,meteohub,2013-06-23 12:02:00,
2013-06-23 08:07:00,73.0,66.2,30.20,West,264,4.0,9.0,79,0.00,,,0.00,394.0,meteohub,2013-06-23 12:07:00,
2013-06-23 08:12:00,73.4,66.6,30.20,WSW,257,3.0,8.0,79,0.00,,,0.00,410.0,meteohub,2013-06-23 12:12:00,
2013-06-23 08:17:00,73.8,66.9,30.20,SW,236,0.0,8.0,79,0.00,,,0.00,424.0,meteohub,2013-06-23 12:17:00,
2013-06-23 08:22:00,73.9,67.1,30.20,SW,235,5.0,8.0,79,0.00,,,0.00,434.0,meteohub,2013-06-23 12:22:00,
2013-06-23 08:27:00,74.3,67.3,30.20,SSW,196,5.0,7.0,79,0.00,,,0.00,443.0,meteohub,2013-06-23 12:27:00,
2013-06-23 08:32:00,74.7,67.3,30.20,WNW,298,4.0,7.0,78,0.00,,,0.00,454.0,meteohub,2013-06-23 12:32:00,
2013-06-23 08:37:00,74.8,67.5,30.21,West,269,0.0,8.0,78,0.00,,,0.00,478.0,meteohub,2013-06-23 12:37:00,
2013-06-23 08:42:00,75.2,67.5,30.20,WNW,291,1.0,8.0,77,0.00,,,0.00,497.0,meteohub,2013-06-23 12:42:00,
2013-06-23 08:47:00,75.4,67.6,30.20,WSW,241,4.0,8.0,77,0.00,,,0.00,512.0,meteohub,2013-06-23 12:47:00,
2013-06-23 08:52:00,75.7,68.0,30.20,NW,305,2.0,7.0,77,0.00,,,0.00,522.0,meteohub,2013-06-23 12:52:00,
2013-06-23 08:57:00,76.3,68.2,30.20,West,265,1.0,7.0,76,0.00,,,0.00,527.0,meteohub,2013-06-23 12:57:00,
2013-06-23 09:02:00,76.6,68.2,30.20,West,263,2.0,7.0,75,0.00,,,0.00,552.0,meteohub,2013-06-23 13:02:00,
2013-06-23 09:07:00,77.0,68.0,30.20,SW,218,1.0,8.0,74,0.00,,,0.00,561.0,meteohub,2013-06-23 13:07:00,
2013-06-23 09:12:00,77.4,68.4,30.20,West,267,2.0,8.0,74,0.00,,,0.00,564.0,meteohub,2013-06-23 13:12:00,
2013-06-23 09:17:00,77.2,68.2,30.20,NW,313,3.0,9.0,74,0.00,,,0.00,596.0,meteohub,2013-06-23 13:17:00,
2013-06-23 09:22:00,77.5,68.5,30.20,WSW,254,0.0,9.0,74,0.00,,,0.00,606.0,meteohub,2013-06-23 13:22:00,
2013-06-23 09:27:00,77.7,68.4,30.20,WNW,289,3.0,9.0,73,0.00,,,0.00,624.0,meteohub,2013-06-23 13:27:00,
2013-06-23 09:32:00,78.1,68.7,30.20,WSW,239,2.0,7.0,73,0.00,,,0.00,624.0,meteohub,2013-06-23 13:32:00,
2013-06-23 09:38:00,78.4,68.7,30.19,South,190,5.0,8.0,72,0.00,,,0.00,638.0,meteohub,2013-06-23 13:38:00,
2013-06-23 09:43:00,79.5,68.9,30.19,SSW,207,5.0,8.0,70,0.00,,,0.00,656.0,meteohub,2013-06-23 13:43:00,
2013-06-23 09:48:00,79.5,68.9,30.19,NW,308,0.0,10.0,70,0.00,,,0.00,673.0,meteohub,2013-06-23 13:48:00,
2013-06-23 09:53:00,79.5,68.9,30.19,SW,233,0.0,10.0,70,0.00,,,0.00,668.0,meteohub,2013-06-23 13:53:00,
2013-06-23 09:58:00,79.7,69.4,30.19,SW,218,1.0,10.0,71,0.00,,,0.00,689.0,meteohub,2013-06-23 13:58:00,
2013-06-23 10:03:00,80.1,69.4,30.19,SW,229,6.0,9.0,70,0.00,,,0.00,701.0,meteohub,2013-06-23 14:03:00,
2013-06-23 10:09:00,80.4,69.3,30.19,WSW,238,5.0,7.0,69,0.00,,,0.00,712.0,meteohub,2013-06-23 14:09:00,
2013-06-23 10:14:00,80.8,69.6,30.19,WNW,302,1.0,9.0,69,0.00,,,0.00,731.0,meteohub,2013-06-23 14:14:00,
2013-06-23 10:19:00,81.0,68.9,30.19,WSW,257,1.0,10.0,67,0.00,,,0.00,738.0,meteohub,2013-06-23 14:19:00,
2013-06-23 10:24:00,81.0,69.4,30.19,SSW,194,5.0,10.0,68,0.00,,,0.00,722.0,meteohub,2013-06-23 14:24:00,
2013-06-23 10:29:00,81.7,69.6,30.19,SSW,194,6.0,10.0,67,0.00,,,0.00,733.0,meteohub,2013-06-23 14:29:00,
2013-06-23 10:34:00,81.3,69.3,30.18,WSW,242,1.0,10.0,67,0.00,,,0.00,726.0,meteohub,2013-06-23 14:34:00,
2013-06-23 10:39:00,81.7,69.6,30.18,West,271,1.0,10.0,67,0.00,,,0.00,754.0,meteohub,2013-06-23 14:39:00,
2013-06-23 10:44:00,82.2,70.2,30.18,WSW,240,2.0,10.0,67,0.00,,,0.00,779.0,meteohub,2013-06-23 14:44:00,
2013-06-23 10:49:00,82.2,69.3,30.18,SW,221,4.0,9.0,65,0.00,,,0.00,786.0,meteohub,2013-06-23 14:49:00,
2013-06-23 10:54:00,82.6,69.6,30.18,WNW,287,3.0,8.0,65,0.00,,,0.00,795.0,meteohub,2013-06-23 14:54:00,
2013-06-23 11:00:00,82.9,69.4,30.18,SW,230,0.0,8.0,64,0.00,,,0.00,812.0,meteohub,2013-06-23 15:00:00,
2013-06-23 11:06:00,83.7,70.2,30.18,SSW,195,0.0,8.0,64,0.00,,,0.00,817.0,meteohub,2013-06-23 15:06:00,
2013-06-23 11:11:00,84.4,69.4,30.18,South,176,3.0,7.0,61,0.00,,,0.00,817.0,meteohub,2013-06-23 15:11:00,
2013-06-23 11:16:00,84.9,69.4,30.18,SSW,209,5.0,10.0,60,0.00,,,0.00,844.0,meteohub,2013-06-23 15:16:00,
2013-06-23 11:21:00,84.6,68.7,30.18,SSW,208,7.0,13.0,59,0.00,,,0.00,854.0,meteohub,2013-06-23 15:21:00,
2013-06-23 11:26:00,84.7,69.8,30.17,SSW,195,0.0,13.0,61,0.00,,,0.00,856.0,meteohub,2013-06-23 15:26:00,
2013-06-23 11:31:00,84.7,69.8,30.17,SSW,197,0.0,12.0,61,0.00,,,0.00,838.0,meteohub,2013-06-23 15:31:00,
2013-06-23 11:36:00,85.1,69.6,30.17,South,191,5.0,11.0,60,0.00,,,0.00,875.0,meteohub,2013-06-23 15:36:00,
2013-06-23 11:42:00,86.0,69.4,30.17,SSW,207,5.0,8.0,58,0.00,,,0.00,881.0,meteohub,2013-06-23 15:42:00,
2013-06-23 11:47:00,85.8,69.3,30.17,SW,236,2.0,10.0,58,0.00,,,0.00,863.0,meteohub,2013-06-23 15:47:00,
2013-06-23 11:52:00,86.5,69.4,30.17,South,180,0.0,10.0,57,0.00,,,0.00,870.0,meteohub,2013-06-23 15:52:00,
2013-06-23 11:57:00,86.5,68.9,30.16,WSW,251,0.0,10.0,56,0.00,,,0.00,870.0,meteohub,2013-06-23 15:57:00,
2013-06-23 12:02:00,86.5,69.4,30.16,SW,226,3.0,10.0,57,0.00,,,0.00,905.0,meteohub,2013-06-23 16:02:00,
2013-06-23 12:07:00,86.0,70.0,30.16,SSE,158,0.0,9.0,59,0.00,,,0.00,949.0,meteohub,2013-06-23 16:07:00,
2013-06-23 12:12:00,86.4,69.3,30.16,SSW,207,5.0,10.0,57,0.00,,,0.00,928.0,meteohub,2013-06-23 16:12:00,
2013-06-23 12:17:00,87.4,69.8,30.16,WSW,258,4.0,11.0,56,0.00,,,0.00,935.0,meteohub,2013-06-23 16:17:00,
2013-06-23 12:22:00,88.7,71.1,30.16,SSE,159,6.0,11.0,56,0.00,,,0.00,947.0,meteohub,2013-06-23 16:22:00,
2013-06-23 12:27:00,89.8,71.4,30.16,SSW,194,0.0,9.0,55,0.00,,,0.00,970.0,meteohub,2013-06-23 16:27:00,
2013-06-23 12:33:00,90.1,71.2,30.16,ESE,116,3.0,9.0,54,0.00,,,0.00,566.0,meteohub,2013-06-23 16:33:00,
2013-06-23 12:38:00,90.7,71.8,30.15,ESE,110,3.0,10.0,54,0.00,,,0.00,1062.0,meteohub,2013-06-23 16:38:00,
2013-06-23 12:43:00,91.0,71.6,30.16,ESE,108,1.0,10.0,53,0.00,,,0.00,1092.0,meteohub,2013-06-23 16:43:00,
2013-06-23 12:48:00,91.0,71.6,30.15,SE,129,9.0,10.0,53,0.00,,,0.00,1143.0,meteohub,2013-06-23 16:48:00,
2013-06-23 12:53:00,91.0,71.6,30.15,SSE,150,5.0,10.0,53,0.00,,,0.00,1132.0,meteohub,2013-06-23 16:53:00,
2013-06-23 12:57:00,90.7,71.2,30.15,SE,132,4.0,10.0,53,0.00,,,0.00,1056.0,meteohub,2013-06-23 16:57:00,
2013-06-23 12:58:00,90.7,71.2,30.15,ESE,109,5.0,10.0,53,0.00,,,0.00,1056.0,meteohub,2013-06-23 16:58:00,
2013-06-23 12:59:00,90.5,71.1,30.15,SE,136,3.0,10.0,53,0.00,,,0.00,1069.0,meteohub,2013-06-23 16:59:00,
2013-06-23 13:04:00,90.7,71.8,30.14,SE,132,3.0,10.0,54,0.00,,,0.00,1000.0,meteohub,2013-06-23 17:04:00,
2013-06-23 13:10:00,91.2,71.6,30.14,South,172,5.0,10.0,53,0.00,,,0.00,1018.0,meteohub,2013-06-23 17:10:00,
2013-06-23 13:15:00,90.9,71.4,30.14,South,186,3.0,11.0,53,0.00,,,0.00,1034.0,meteohub,2013-06-23 17:15:00,
2013-06-23 13:20:00,90.3,71.4,30.14,SSE,159,6.0,12.0,54,0.00,,,0.00,942.0,meteohub,2013-06-23 17:20:00,
2013-06-23 13:25:00,90.0,71.1,30.14,SSE,158,3.0,12.0,54,0.00,,,0.00,962.0,meteohub,2013-06-23 17:25:00,
2013-06-23 13:30:00,89.6,71.2,30.14,SSW,192,10.0,12.0,55,0.00,,,0.00,1048.0,meteohub,2013-06-23 17:30:00,
2013-06-23 13:35:00,89.2,71.4,30.14,South,188,6.0,12.0,56,0.00,,,0.00,919.0,meteohub,2013-06-23 17:35:00,
2013-06-23 13:40:00,89.8,72.0,30.14,SSW,192,6.0,17.0,56,0.00,,,0.00,925.0,meteohub,2013-06-23 17:40:00,
2013-06-23 13:45:00,90.0,71.6,30.14,SSW,213,7.0,17.0,55,0.00,,,0.00,891.0,meteohub,2013-06-23 17:45:00,
2013-06-23 13:50:00,89.4,71.6,30.14,ESE,112,4.0,16.0,56,0.00,,,0.00,904.0,meteohub,2013-06-23 17:50:00,
2013-06-23 13:56:00,89.4,72.1,30.13,ESE,117,10.0,16.0,57,0.00,,,0.00,905.0,meteohub,2013-06-23 17:56:00,
2013-06-23 14:01:00,89.4,72.1,30.13,SE,133,7.0,16.0,57,0.00,,,0.00,879.0,meteohub,2013-06-23 18:01:00,
2013-06-23 14:06:00,89.8,73.0,30.13,ESE,123,7.0,13.0,58,0.00,,,0.00,881.0,meteohub,2013-06-23 18:06:00,
2013-06-23 14:11:00,89.6,72.9,30.13,ESE,123,4.0,14.0,58,0.00,,,0.00,882.0,meteohub,2013-06-23 18:11:00,
2013-06-23 14:16:00,89.2,72.5,30.13,SSW,202,7.0,14.0,58,0.00,,,0.00,954.0,meteohub,2013-06-23 18:16:00,
2013-06-23 14:21:00,88.3,72.7,30.13,SSE,162,6.0,14.0,60,0.00,,,0.00,1013.0,meteohub,2013-06-23 18:21:00,
2013-06-23 14:26:00,88.2,72.5,30.13,SSE,157,7.0,14.0,60,0.00,,,0.00,995.0,meteohub,2013-06-23 18:26:00,
2013-06-23 14:31:00,88.0,72.9,30.13,SE,134,2.0,14.0,61,0.00,,,0.00,963.0,meteohub,2013-06-23 18:31:00,
2013-06-23 14:36:00,87.6,72.5,30.13,SE,140,8.0,14.0,61,0.00,,,0.00,269.0,meteohub,2013-06-23 18:36:00,
2013-06-23 14:41:00,86.5,72.5,30.12,South,183,7.0,14.0,63,0.00,,,0.00,432.0,meteohub,2013-06-23 18:41:00,
2013-06-23 14:46:00,86.7,73.0,30.12,SE,142,6.0,14.0,64,0.00,,,0.00,940.0,meteohub,2013-06-23 18:46:00,
2013-06-23 14:52:00,87.6,73.0,30.12,South,176,5.0,12.0,62,0.00,,,0.00,998.0,meteohub,2013-06-23 18:52:00,
2013-06-23 14:57:00,87.6,72.5,30.12,SSW,201,2.0,14.0,61,0.00,,,0.00,427.0,meteohub,2013-06-23 18:57:00,
2013-06-23 15:02:00,87.3,72.7,30.12,SSW,211,7.0,14.0,62,0.00,,,0.00,991.0,meteohub,2013-06-23 19:02:00,
2013-06-23 15:07:00,87.4,72.9,30.11,ESE,111,7.0,15.0,62,0.00,,,0.00,313.0,meteohub,2013-06-23 19:07:00,
2013-06-23 15:12:00,86.9,72.3,30.11,SSE,158,1.0,15.0,62,0.00,,,0.00,218.0,meteohub,2013-06-23 19:12:00,
2013-06-23 15:17:00,86.0,72.0,30.12,SSW,196,11.0,15.0,63,0.00,,,0.00,120.0,meteohub,2013-06-23 19:17:00,
2013-06-23 15:22:00,84.6,72.0,30.12,South,185,6.0,11.0,66,0.00,,,0.00,42.0,meteohub,2013-06-23 19:22:00,
2013-06-23 15:27:00,81.9,69.8,30.12,North,350,10.0,19.0,67,0.00,,,0.00,40.0,meteohub,2013-06-23 19:27:00,
2013-06-23 15:32:00,78.6,70.3,30.12,WSW,243,5.0,19.0,76,0.00,,,0.00,56.0,meteohub,2013-06-23 19:32:00,
2013-06-23 15:37:00,76.5,70.9,30.12,SW,221,5.0,19.0,83,0.02,,,0.02,88.0,meteohub,2013-06-23 19:37:00,
2013-06-23 15:42:00,75.6,71.1,30.11,West,272,0.0,12.0,86,0.03,,,0.03,114.0,meteohub,2013-06-23 19:42:00,
2013-06-23 15:47:00,75.6,71.8,30.11,SSW,208,3.0,11.0,88,0.04,,,0.04,172.0,meteohub,2013-06-23 19:47:00,
2013-06-23 15:52:00,75.6,72.1,30.11,West,266,0.0,5.0,89,0.04,,,0.04,209.0,meteohub,2013-06-23 19:52:00,
2013-06-23 15:57:00,75.7,72.0,30.11,SSW,202,0.0,3.0,88,0.04,,,0.04,272.0,meteohub,2013-06-23 19:57:00,
2013-06-23 16:02:00,76.3,72.9,30.11,SSW,202,0.0,3.0,89,0.04,,,0.04,334.0,meteohub,2013-06-23 20:02:00,
2013-06-23 16:07:00,77.0,74.1,30.11,SE,134,2.0,2.0,91,0.04,,,0.04,872.0,meteohub,2013-06-23 20:07:00,
2013-06-23 16:12:00,78.3,75.7,30.10,ESE,121,3.0,4.0,92,0.04,,,0.04,886.0,meteohub,2013-06-23 20:12:00,
2013-06-23 16:17:00,79.2,76.3,30.10,SE,136,0.0,4.0,91,0.04,,,0.04,896.0,meteohub,2013-06-23 20:17:00,
2013-06-23 16:22:00,80.2,76.6,30.10,ESE,121,0.0,6.0,89,0.04,,,0.04,863.0,meteohub,2013-06-23 20:22:00,
2013-06-23 16:27:00,81.0,76.5,30.10,ESE,117,2.0,6.0,86,0.04,,,0.04,673.0,meteohub,2013-06-23 20:27:00,
2013-06-23 16:32:00,81.0,75.0,30.10,ESE,109,0.0,7.0,82,0.03,,,0.04,645.0,meteohub,2013-06-23 20:32:00,
2013-06-23 16:37:00,81.7,74.8,30.09,SE,142,0.0,7.0,80,0.02,,,0.04,621.0,meteohub,2013-06-23 20:37:00,
2013-06-23 16:42:00,82.4,75.2,30.09,SE,128,1.0,7.0,79,0.01,,,0.04,592.0,meteohub,2013-06-23 20:42:00,
2013-06-23 16:47:00,83.5,75.6,30.09,SE,131,2.0,6.0,77,0.00,,,0.04,552.0,meteohub,2013-06-23 20:47:00,
2013-06-23 16:52:00,83.8,75.0,30.09,SE,125,1.0,6.0,75,0.00,,,0.04,538.0,meteohub,2013-06-23 20:52:00,
2013-06-23 16:57:00,83.8,75.0,30.08,ESE,115,1.0,5.0,75,0.00,,,0.04,554.0,meteohub,2013-06-23 20:57:00,
2013-06-23 17:02:00,84.6,74.5,30.08,SE,131,6.0,6.0,72,0.00,,,0.04,554.0,meteohub,2013-06-23 21:02:00,
2013-06-23 17:07:00,84.9,73.6,30.08,SE,138,2.0,9.0,69,0.00,,,0.04,378.0,meteohub,2013-06-23 21:07:00,
2013-06-23 17:12:00,85.1,73.4,30.08,SSW,195,9.0,13.0,68,0.00,,,0.04,185.0,meteohub,2013-06-23 21:12:00,
2013-06-23 17:17:00,84.6,73.2,30.08,SSE,153,3.0,13.0,69,0.00,,,0.04,418.0,meteohub,2013-06-23 21:17:00,
2013-06-23 17:22:00,84.6,73.8,30.08,SE,145,5.0,12.0,70,0.00,,,0.04,485.0,meteohub,2013-06-23 21:22:00,
2013-06-23 17:27:00,84.9,73.6,30.08,South,171,4.0,12.0,69,0.00,,,0.04,244.0,meteohub,2013-06-23 21:27:00,
2013-06-23 17:32:00,84.6,72.9,30.08,SSW,192,5.0,8.0,68,0.00,,,0.04,167.0,meteohub,2013-06-23 21:32:00,
2013-06-23 17:37:00,83.7,72.3,30.08,South,190,5.0,10.0,69,0.00,,,0.04,162.0,meteohub,2013-06-23 21:37:00,
2013-06-23 17:42:00,82.8,72.3,30.08,SSW,201,1.0,12.0,71,0.00,,,0.04,167.0,meteohub,2013-06-23 21:42:00,
2013-06-23 17:47:00,82.2,72.3,30.08,SSE,168,0.0,12.0,72,0.00,,,0.04,155.0,meteohub,2013-06-23 21:47:00,
2013-06-23 17:52:00,81.9,72.3,30.07,South,174,5.0,10.0,73,0.00,,,0.04,148.0,meteohub,2013-06-23 21:52:00,
2013-06-23 17:57:00,81.7,72.1,30.07,SSW,192,7.0,10.0,73,0.00,,,0.04,130.0,meteohub,2013-06-23 21:57:00,
2013-06-23 18:02:00,81.7,72.1,30.07,South,188,6.0,10.0,73,0.00,,,0.04,142.0,meteohub,2013-06-23 22:02:00,
2013-06-23 18:07:00,81.7,72.1,30.07,SE,132,1.0,7.0,73,0.00,,,0.00,139.0,meteohub,2013-06-23 22:07:00,
2013-06-23 18:12:00,81.3,71.8,30.07,SE,142,3.0,7.0,73,0.00,,,0.00,107.0,meteohub,2013-06-23 22:12:00,
2013-06-23 18:17:00,81.0,72.0,30.07,SE,143,1.0,13.0,74,0.00,,,0.00,105.0,meteohub,2013-06-23 22:17:00,
2013-06-23 18:22:00,80.2,71.6,30.07,SE,134,4.0,13.0,75,0.00,,,0.00,113.0,meteohub,2013-06-23 22:22:00,
2013-06-23 18:27:00,79.5,71.2,30.07,SE,126,4.0,13.0,76,0.00,,,0.00,111.0,meteohub,2013-06-23 22:27:00,
2013-06-23 18:32:00,79.2,71.2,30.08,SE,139,7.0,8.0,77,0.00,,,0.00,142.0,meteohub,2013-06-23 22:32:00,
2013-06-23 18:37:00,78.8,71.1,30.08,WSW,238,3.0,8.0,77,0.00,,,0.00,163.0,meteohub,2013-06-23 22:37:00,
2013-06-23 18:42:00,79.0,71.6,30.08,South,184,0.0,9.0,78,0.00,,,0.00,156.0,meteohub,2013-06-23 22:42:00,
2013-06-23 18:47:00,78.6,71.2,30.08,SSE,150,1.0,9.0,78,0.00,,,0.00,142.0,meteohub,2013-06-23 22:47:00,
2013-06-23 18:52:00,78.4,71.4,30.08,ESE,109,1.0,8.0,79,0.00,,,0.00,169.0,meteohub,2013-06-23 22:52:00,
2013-06-23 18:57:00,78.6,71.6,30.07,SSW,195,0.0,8.0,79,0.00,,,0.00,137.0,meteohub,2013-06-23 22:57:00,
2013-06-23 19:02:00,78.6,71.6,30.07,SE,144,1.0,8.0,79,0.00,,,0.00,105.0,meteohub,2013-06-23 23:02:00,
2013-06-23 19:07:00,78.4,71.4,30.07,SE,138,0.0,8.0,79,0.00,,,0.00,79.0,meteohub,2013-06-23 23:07:00,
2013-06-23 19:12:00,78.3,71.6,30.07,SSW,198,0.0,7.0,80,0.00,,,0.00,54.0,meteohub,2013-06-23 23:12:00,
2013-06-23 19:17:00,78.1,71.4,30.07,SE,140,3.0,8.0,80,0.00,,,0.00,46.0,meteohub,2013-06-23 23:17:00,
2013-06-23 19:22:00,77.9,71.6,30.07,ESE,123,5.0,8.0,81,0.00,,,0.00,39.0,meteohub,2013-06-23 23:22:00,
2013-06-23 19:27:00,77.7,71.4,30.07,SSW,192,0.0,8.0,81,0.00,,,0.00,35.0,meteohub,2013-06-23 23:27:00,
2013-06-23 19:32:00,77.5,71.2,30.07,South,190,2.0,8.0,81,0.00,,,0.00,30.0,meteohub,2013-06-23 23:32:00,
2013-06-23 19:37:00,77.4,71.4,30.07,South,182,6.0,8.0,82,0.00,,,0.00,26.0,meteohub,2013-06-23 23:37:00,
2013-06-23 19:42:00,77.4,71.4,30.07,South,186,0.0,8.0,82,0.00,,,0.00,23.0,meteohub,2013-06-23 23:42:00,
2013-06-23 19:48:00,77.4,71.8,30.07,SSW,211,4.0,9.0,83,0.00,,,0.00,18.0,meteohub,2013-06-23 23:48:00,
2013-06-23 19:53:00,77.2,71.6,30.07,SSW,193,7.0,9.0,83,0.00,,,0.00,12.0,meteohub,2013-06-23 23:53:00,
2013-06-23 19:58:00,76.8,71.6,30.07,SSW,200,7.0,9.0,84,0.00,,,0.00,11.0,meteohub,2013-06-23 23:58:00,
2013-06-23 20:03:00,76.8,71.6,30.06,South,177,2.0,9.0,84,0.00,,,0.00,7.0,meteohub,2013-06-24 00:03:00,
2013-06-23 20:08:00,76.6,71.8,30.06,South,187,5.0,9.0,85,0.00,,,0.00,5.0,meteohub,2013-06-24 00:08:00,
2013-06-23 20:13:00,76.6,71.8,30.07,SSE,159,5.0,11.0,85,0.00,,,0.00,0.0,meteohub,2013-06-24 00:13:00,
2013-06-23 20:18:00,76.6,72.1,30.07,SSW,200,4.0,11.0,86,0.00,,,0.00,0.0,meteohub,2013-06-24 00:18:00,
2013-06-23 20:23:00,76.6,72.1,30.07,WNW,297,3.0,11.0,86,0.00,,,0.00,0.0,meteohub,2013-06-24 00:23:00,
2013-06-23 20:28:00,76.6,72.1,30.07,SSW,209,3.0,11.0,86,0.00,,,0.00,0.0,meteohub,2013-06-24 00:28:00,
2013-06-23 20:33:00,75.9,72.1,30.07,South,188,7.0,11.0,88,0.00,,,0.00,0.0,meteohub,2013-06-24 00:33:00,
2013-06-23 20:39:00,75.6,72.1,30.08,South,185,5.0,10.0,89,0.00,,,0.00,0.0,meteohub,2013-06-24 00:39:00,
2013-06-23 20:44:00,74.8,71.8,30.08,SW,222,0.0,7.0,90,0.01,,,0.01,0.0,meteohub,2013-06-24 00:44:00,
2013-06-23 20:49:00,74.7,71.8,30.08,SSW,192,0.0,9.0,91,0.03,,,0.03,0.0,meteohub,2013-06-24 00:49:00,
2013-06-23 20:54:00,74.5,72.0,30.08,SSW,192,0.0,9.0,92,0.05,,,0.05,0.0,meteohub,2013-06-24 00:54:00,
2013-06-23 20:59:00,74.3,71.8,30.08,SSW,192,0.0,6.0,92,0.05,,,0.05,0.0,meteohub,2013-06-24 00:59:00,
2013-06-23 21:04:00,74.1,72.0,30.08,SSW,192,0.0,4.0,93,0.06,,,0.06,0.0,meteohub,2013-06-24 01:04:00,
2013-06-23 21:09:00,74.1,72.0,30.08,SSW,192,0.0,3.0,93,0.06,,,0.06,0.0,meteohub,2013-06-24 01:09:00,
2013-06-23 21:14:00,74.1,72.3,30.08,SSW,192,0.0,3.0,94,0.06,,,0.06,0.0,meteohub,2013-06-24 01:14:00,
2013-06-23 21:19:00,74.1,72.3,30.08,SSW,198,0.0,3.0,94,0.06,,,0.06,0.0,meteohub,2013-06-24 01:19:00,
2013-06-23 21:20:00,74.1,72.3,30.08,SSW,198,0.0,3.0,94,0.06,,,0.06,0.0,meteohub,2013-06-24 01:20:00,
2013-06-23 21:25:00,73.9,72.1,30.08,South,182,0.0,4.0,94,0.06,,,0.06,0.0,meteohub,2013-06-24 01:25:00,
2013-06-23 21:30:00,73.9,72.1,30.08,SSW,199,0.0,6.0,94,0.07,,,0.06,0.0,meteohub,2013-06-24 01:30:00,
2013-06-23 21:36:00,73.9,72.1,30.09,SSW,199,2.0,6.0,94,0.06,,,0.07,0.0,meteohub,2013-06-24 01:36:00,
2013-06-23 21:41:00,73.9,72.5,30.09,South,188,0.0,6.0,95,0.06,,,0.08,0.0,meteohub,2013-06-24 01:41:00,
2013-06-23 21:46:00,73.9,72.5,30.09,South,188,0.0,5.0,95,0.05,,,0.09,0.0,meteohub,2013-06-24 01:46:00,
2013-06-23 21:51:00,73.9,72.5,30.09,South,188,0.0,4.0,95,0.04,,,0.09,0.0,meteohub,2013-06-24 01:51:00,
2013-06-23 21:56:00,73.8,72.3,30.09,South,186,1.0,4.0,95,0.04,,,0.09,0.0,meteohub,2013-06-24 01:56:00,
2013-06-23 22:01:00,73.8,72.3,30.09,South,186,0.0,4.0,95,0.03,,,0.09,0.0,meteohub,2013-06-24 02:01:00,
2013-06-23 22:06:00,73.8,72.3,30.09,South,186,0.0,4.0,95,0.03,,,0.09,0.0,meteohub,2013-06-24 02:06:00,
2013-06-23 22:11:00,73.8,72.3,30.09,South,186,0.0,4.0,95,0.03,,,0.09,0.0,meteohub,2013-06-24 02:11:00,
2013-06-23 22:16:00,73.6,72.3,30.08,South,186,1.0,3.0,96,0.03,,,0.09,0.0,meteohub,2013-06-24 02:16:00,
2013-06-23 22:21:00,73.6,72.3,30.08,South,186,0.0,4.0,96,0.03,,,0.09,0.0,meteohub,2013-06-24 02:21:00,
2013-06-23 22:26:00,73.6,72.3,30.08,South,189,4.0,4.0,96,0.03,,,0.09,0.0,meteohub,2013-06-24 02:26:00,
2013-06-23 22:32:00,73.4,72.1,30.08,South,189,3.0,6.0,96,0.02,,,0.09,0.0,meteohub,2013-06-24 02:32:00,
2013-06-23 22:37:00,73.4,72.1,30.08,SSW,199,3.0,6.0,96,0.02,,,0.09,0.0,meteohub,2013-06-24 02:37:00,
2013-06-23 22:42:00,73.2,72.0,30.08,SSW,197,1.0,6.0,96,0.00,,,0.09,0.0,meteohub,2013-06-24 02:42:00,
2013-06-23 22:47:00,73.2,72.0,30.08,South,191,2.0,7.0,96,0.00,,,0.09,0.0,meteohub,2013-06-24 02:47:00,
2013-06-23 22:52:00,73.2,72.0,30.08,SSW,201,2.0,7.0,96,0.00,,,0.09,0.0,meteohub,2013-06-24 02:52:00,
2013-06-23 22:57:00,73.2,72.0,30.08,South,180,1.0,5.0,96,0.00,,,0.09,0.0,meteohub,2013-06-24 02:57:00,
2013-06-23 23:02:00,73.2,72.0,30.08,SSW,194,0.0,6.0,96,0.00,,,0.09,0.0,meteohub,2013-06-24 03:02:00,
2013-06-23 23:07:00,73.0,71.8,30.08,South,182,3.0,6.0,96,0.00,,,0.09,0.0,meteohub,2013-06-24 03:07:00,
2013-06-23 23:12:00,73.0,71.8,30.08,South,179,0.0,6.0,96,0.00,,,0.09,0.0,meteohub,2013-06-24 03:12:00,
2013-06-23 23:17:00,73.0,71.8,30.08,South,178,0.0,7.0,96,0.00,,,0.09,0.0,meteohub,2013-06-24 03:17:00,
2013-06-23 23:22:00,73.0,71.8,30.08,South,173,0.0,7.0,96,0.00,,,0.09,0.0,meteohub,2013-06-24 03:22:00,
2013-06-23 23:27:00,73.2,72.0,30.08,South,173,0.0,3.0,96,0.00,,,0.09,0.0,meteohub,2013-06-24 03:27:00,
2013-06-23 23:32:00,73.0,71.8,30.08,SSW,203,0.0,4.0,96,0.00,,,0.09,0.0,meteohub,2013-06-24 03:32:00,
2013-06-23 23:37:00,73.0,71.8,30.08,SW,223,1.0,5.0,96,0.00,,,0.09,0.0,meteohub,2013-06-24 03:37:00,
2013-06-23 23:42:00,73.0,71.8,30.08,SW,223,1.0,5.0,96,0.00,,,0.09,0.0,meteohub,2013-06-24 03:42:00,
2013-06-23 23:47:00,73.0,71.8,30.08,SW,225,0.0,5.0,96,0.00,,,0.09,0.0,meteohub,2013-06-24 03:47:00,
2013-06-23 23:52:00,73.0,71.8,30.08,SSW,205,0.0,4.0,96,0.00,,,0.09,0.0,meteohub,2013-06-24 03:52:00,
2013-06-23 23:57:00,72.9,71.6,30.08,SSW,192,1.0,7.0,96,0.00,,,0.09,0.0,meteohub,2013-06-24 03:57:00,